Regional Weather Roundup
Issued by NWS

Home | Current Version | Previous Version | Graphics & Text | Print | Product List | Glossary On
Versions: 1 2 3 4 5 6 7 8 9 10 11 12 13 14 15 16 17 18 19 20 21 22 23 24 25 26 27 28 29 30 31 32 33 34 35 36 37 38 39 40 41 42 43 44 45 46 47 48 49 50
617
ASUS45 KPSR 231010
RWRAZ

ARIZONA HOURLY REGIONAL WEATHER ROUNDUP
NATIONAL WEATHER SERVICE PHOENIX AZ
300 AM MST THU MAR 23 2017

NOTE: FAIR INDICATES FEW OR NO CLOUDS BELOW 12,000 FEET WITH NO
SIGNIFICANT WEATHER AND/OR OBSTRUCTIONS TO VISIBILITY.

AZZ001>003-036-231100-
NORTHWEST ARIZONA

CITY           SKY/WX    TMP DP  RH WIND       PRES   REMARKS
BULLHEAD CITY  PTCLDY    61  34  36 SW15      29.81F
KINGMAN        CLEAR     44  31  60 S12       29.83F
$$

AZZ004>008-015-016-018-231100-
NORTH CENTRAL ARIZONA

CITY           SKY/WX    TMP DP  RH WIND       PRES   REMARKS
GRAND CANYON   LGT SNOW  34  34 100 SW6       29.88S FOG     WCI  29
WILLIAMS       LGT SNOW  32  32 100 SE6       29.87F VSB 1   WCI  26
PRESCOTT       LGT RAIN  38  37  97 SE10      29.89F FOG     WCI  31
FLAGSTAFF      SNOW      31  31 100 S9        29.88F VSB 1/2 WCI  23
PAYSON         DRIZZLE   41  39  93 W14G21    29.93S
PAGE           LGT RAIN  46  32  58 CALM      29.81F
$$

AZZ009>014-017-231100-
NORTHEAST ARIZONA

CITY           SKY/WX    TMP DP  RH WIND       PRES   REMARKS
WINSLOW        MOCLDY    45  37  73 NW8       29.89F
SAINT JOHNS    PTCLDY    49  36  61 W14       29.87F
WINDOW ROCK    CLEAR     45  31  58 S9        29.89F
SHOW LOW       MOCLDY    45  36  70 SW17G26   29.92F
$$

AZZ023-231100-
GREATER PHOENIX AREA

CITY           SKY/WX    TMP DP  RH WIND       PRES   REMARKS
PHOENIX        LGT RAIN  56  49  77 NW14      29.89S
BUCKEYE        CLOUDY    55  55 100 S6        29.88F
LUKE AFB       DRIZZLE   57  48  72 E3        29.87F
DEER VALLEY    LGT RAIN  53  47  79 N9        29.88F
SCOTTSDALE     LGT RAIN  54  46  74 VRB3      29.90F
MESA-GATEWAY   LGT RAIN  54  46  76 N16       29.89R
$$

AZZ027-028-231100-
SOUTHWEST MARICOPA COUNTY AND PINAL COUNTY

CITY           SKY/WX    TMP DP  RH WIND       PRES   REMARKS
CASA GRANDE    NOT AVBL
GILA BEND      LGT RAIN  57  46  67 CALM      29.89S
$$

AZZ503-504-507>509-231100-
SOUTHEAST ARIZONA

CITY           SKY/WX    TMP DP  RH WIND       PRES   REMARKS
TUCSON         CLOUDY    63  46  54 SW5       29.90F
DAVIS-MONTHAN  MOCLDY    63  46  54 SW7       29.88F
NOGALES        PTCLDY    56  46  69 CALM      29.93F
SIERRA VISTA   CLEAR     55  41  60 SW15      29.94R
DOUGLAS        CLEAR     57  34  41 SE6       29.91F
SAFFORD        CLEAR     61  41  47 NW10G22   29.83F
$$

AZZ020-021-025-026-031-231100-
SOUTHWEST ARIZONA

CITY           SKY/WX    TMP DP  RH WIND       PRES   REMARKS
YUMA           PTCLDY    56  44  64 W8        29.90R
$$

CAZ031-033-041-043-047-048-061-231100-
SOUTHERN CALIFORNIA

CITY           SKY/WX    TMP DP  RH WIND       PRES   REMARKS
DOWNTOWN L.A.  CLEAR     55  45  68 W3        30.00S
L.A. AIRPORT   PTCLDY    56  49  77 W8        30.01S
SAN DIEGO      MOCLDY    58  46  64 W14       30.08R
BURBANK        CLEAR     52  39  61 NW3       29.99S
ONTARIO        MOCLDY    52  47  83 SW6       29.99S
RIVERSIDE      CLOUDY    53  48  83 CALM      29.99F
PALM SPRINGS   CLOUDY    60  38  43 CALM      29.89R
EL CENTRO NAS  MOCLDY    61  38  42 W18       29.93R
IMPERIAL       MOCLDY    61  41  47 W17G32    29.90R
BLYTHE         PTCLDY    59  40  49 CALM      29.86S
NEEDLES        MOCLDY    61  33  35 W10       29.84R
$$

NVZ020-UTZ003-231100-
SOUTHERN NEVADA-UTAH

CITY           SKY/WX    TMP DP  RH WIND       PRES   REMARKS
LAS VEGAS      PTCLDY    54  28  36 S6        29.77S
SALT LAKE CITY LGT RAIN  45  42  89 W9        29.72S FOG
$$

NMZ009-TXZ055-231100-
NEW MEXICO-WEST TEXAS

CITY           SKY/WX    TMP DP  RH WIND       PRES   REMARKS
ALBUQUERQUE    CLEAR     55  16  21 S6        29.87F
EL PASO        MOCLDY    64  18  17 SE7       29.89F
$$


........................KEY........................
SKY/WX - SKY CONDITION/WEATHER
TMP    - TEMPERATURE IN FAHRENHEIT
DP     - DEW POINT IN FAHRENHEIT
RH     - RELATIVE HUMIDITY IN PERCENT
WIND   - DIRECTION AND SPEED IN MILES PER HOUR (MPH)
VRB    - VARIABLE WIND DIRECTION
PRES   - MEAN SEA LEVEL PRESSURE IN INCHES OF MERCURY
         F - FALLING PRESSURE   R - RISING PRESSURE
         S - STEADY PRESSURE
VSB    - VISIBILITY IN MILES
HX     - HEAT INDEX IN FAHRENHEIT
WCI    - WIND CHILL INDEX IN FAHRENHEIT
TC     - TEMPERATURE IN CELSIUS WHICH IS ALSO KNOWN AS
         TEMPERATURE IN CENTIGRADE
AFB    - AIR FORCE BASE
         LUKE AFB IS LUKE AIR FORCE BASE
         DAVIS-MONTHAN IS DAVIS-MONTHAN AIR FORCE BASE
NAS    - NAVAL AIR STATION
         EL CENTRO NAS IS EL CENTRO NAVAL AIR STATION
N/A    - NOT AVAILABLE





USA.gov is the U.S. government's official web portal to all federal, state and local government web resources and services.